Theta_e
309 309 310 311 311 310 310 311 313 311 310 311 311 312 311 312 313 311 308 305 304 303 302 302 302 303 305 306 306 306 306 307 308 308 309 310 310 310 310 310 310 310 313 314
310 308 309 310 310 310 310 310 310 311 311 311 311 310 311 312 311 309 305 304 302 301 300 299 300 301 301 301 302 302 303 305 306 307 307 307 309 309 310 311 311 311 313 310
313 309 310 312 311 311 311 310 310 311 311 311 311 310 310 312 309 306 304 302 301 300 298 298 298 299 298 299 300 301 301 302 303 304 305 307 307 307 307 308 308 306 304 303
312 310 315 311 309 310 311 310 310 310 310 310 310 309 310 309 308 305 302 302 301 299 298 298 297 298 298 300 300 300 300 301 301 302 303 303 303 303 303 303 301 300 299 298
313 312 312 311 309 310 312 316 310 310 310 310 309 311 311 309 308 304 303 305 303 301 299 299 299 298 298 299 299 299 299 299 300 300 300 300 300 300 299 299 298 298 297 297
311 311 314 313 314 310 312 319 313 310 311 311 311 316 316 309 307 306 306 305 304 302 301 300 300 299 299 299 297 297 298 298 298 298 299 299 299 299 298 298 297 297 297 296
313 311 311 311 313 312 319 318 312 312 312 312 313 312 309 309 307 307 306 305 303 303 303 302 302 301 300 299 298 297 298 298 298 298 298 297 297 297 297 297 297 297 296 296
312 312 311 309 311 315 315 311 311 312 310 309 309 308 308 308 307 307 307 306 304 304 303 303 302 302 301 301 300 299 299 299 299 298 298 297 297 297 297 296 294 291 289 288
311 311 309 310 312 312 311 310 311 311 310 309 308 307 307 307 307 307 307 307 306 305 303 303 302 301 301 299 299 299 298 298 297 294 292 291 290 290 290 289 289 288 287 287
311 312 310 309 310 310 311 310 310 310 310 309 308 308 307 307 307 307 307 307 307 305 305 303 301 300 300 299 297 296 294 293 291 291 291 290 290 289 289 288 287 287 286 286
312 311 311 310 310 310 310 310 310 310 310 310 309 309 308 308 308 308 307 307 307 306 306 304 302 301 299 297 296 295 293 291 291 291 290 290 289 288 288 287 287 286 285 284
314 312 312 311 310 310 310 310 309 310 310 310 310 308 308 308 308 308 308 307 307 306 305 303 301 300 298 297 296 294 292 291 291 290 290 289 288 287 287 286 286 285 283 283
310 309 310 310 309 308 309 309 309 308 309 308 308 308 308 308 307 308 307 307 306 306 305 302 300 299 298 297 295 293 291 291 290 290 289 288 287 287 286 285 284 283 283 282
310 310 308 308 309 308 307 306 306 306 309 309 307 307 306 307 306 306 307 307 306 305 304 301 300 300 298 296 294 292 291 291 290 290 289 287 287 286 285 284 283 283 282 282
307 307 306 305 304 303 303 304 304 304 307 308 306 306 306 305 306 306 305 305 305 304 302 298 299 299 298 296 294 291 290 290 290 289 288 287 287 286 285 284 283 282 282 282
305 304 304 303 303 304 303 303 303 304 305 306 306 306 306 304 304 303 303 303 304 304 301 298 298 297 297 295 293 291 290 290 290 289 287 287 287 286 285 283 283 282 282 281
302 302 302 303 303 303 303 303 303 303 304 305 306 306 305 303 303 302 301 301 301 302 301 299 298 297 296 295 292 290 290 290 290 288 287 287 286 285 284 283 283 282 282 281
301 302 302 301 302 303 303 302 302 304 304 306 305 305 304 303 303 302 301 299 298 298 298 298 297 297 295 294 292 290 290 290 289 288 287 287 286 284 283 283 282 282 281 281
302 302 301 301 301 301 302 302 302 303 304 305 305 306 304 302 301 301 300 298 297 296 298 299 298 297 295 294 292 290 289 289 289 288 287 286 285 284 283 283 282 282 281 280
300 302 302 303 303 303 303 303 304 305 305 304 304 303 302 300 299 299 299 298 298 297 298 300 300 296 294 293 291 289 289 289 288 287 286 285 284 284 283 283 282 281 281 280
299 300 301 302 301 301 301 302 303 304 305 304 301 300 299 299 298 298 298 298 297 298 298 299 297 295 294 292 291 289 289 289 288 286 286 284 284 284 283 283 282 282 281 281
298 298 298 299 300 300 300 300 301 302 303 302 300 298 297 297 297 297 296 298 299 296 296 296 294 294 294 292 290 289 289 289 288 286 285 284 284 284 283 283 283 283 282 282
293 294 294 295 295 297 297 298 298 300 301 301 300 299 298 298 298 298 299 299 298 297 296 295 293 294 293 292 290 289 288 289 287 286 285 284 284 284 284 284 284 283 283 283
291 291 291 292 293 294 295 296 297 297 297 299 299 299 298 298 298 298 297 297 296 297 297 294 293 293 292 292 290 288 288 288 287 286 284 284 284 284 284 284 284 284 284 284
288 288 289 289 289 289 290 292 295 296 296 296 296 298 298 297 297 297 295 297 297 296 295 292 292 292 292 291 290 288 288 288 286 285 284 284 284 284 285 285 285 285 286 286
288 288 288 288 288 288 288 288 290 293 295 295 295 294 295 297 297 296 296 296 297 297 296 293 293 292 292 291 289 288 288 287 286 285 284 284 284 284 285 285 286 286 286 286
287 287 287 287 287 288 288 288 288 289 291 293 294 294 293 293 295 295 296 296 296 296 296 295 293 292 291 290 289 288 288 287 286 284 284 284 284 285 285 286 286 286 286 286
Wind_Speed
2 2 4 3 6 13 11 10 6 1 7 7 7 8 9 9 9 7 8 8 9 10 10 11 10 8 9 9 9 10 10 7 7 8 9 10 12 13 14 14 16 16 15 16
2 3 6 8 11 12 16 16 16 15 18 16 18 5 6 10 7 6 7 7 6 7 7 8 10 10 10 10 10 10 10 8 6 6 8 8 8 9 9 9 14 18 22 14
1 1 4 8 16 19 11 9 14 12 10 6 8 6 9 8 3 4 5 4 5 5 8 9 10 9 10 10 10 10 8 6 4 4 5 5 5 5 4 3 3 5 5 5
1 2 4 3 3 3 17 11 17 12 13 12 12 11 8 4 2 2 1 2 6 6 8 8 7 8 9 8 9 10 10 8 7 6 6 6 6 5 5 4 2 4 5 8
2 3 8 5 5 6 6 1 15 16 16 17 10 5 6 5 1 3 4 6 6 9 11 9 10 10 11 11 11 11 12 12 13 12 11 12 11 9 9 8 9 10 10 10
2 2 3 3 2 6 4 4 3 11 10 7 3 4 1 8 5 7 6 7 9 11 13 12 13 14 15 17 16 16 15 15 15 16 15 16 16 14 13 13 14 13 12 10
8 5 7 6 1 5 4 4 3 4 5 3 4 3 5 9 9 10 8 9 10 10 12 14 14 15 17 18 20 18 18 18 19 19 19 18 17 15 13 12 11 10 7 6
6 5 8 6 5 4 4 3 1 2 3 4 7 8 9 11 12 12 10 9 9 8 9 10 10 11 15 17 17 16 17 18 18 18 17 15 13 13 11 9 8 9 8 8
8 5 1 6 1 2 3 5 3 4 4 5 6 8 11 15 15 14 12 10 8 7 8 9 9 9 11 13 12 13 14 15 14 14 14 13 12 11 10 9 7 6 5 4
4 8 13 7 6 5 1 2 2 5 7 8 7 7 11 16 18 18 15 12 10 9 8 8 9 9 9 11 10 10 11 12 12 10 10 9 8 8 7 6 5 4 3 4
6 6 3 6 5 4 2 6 10 12 12 12 11 9 11 18 20 20 19 16 14 12 11 10 9 9 9 9 8 7 7 8 9 8 7 6 5 5 4 3 2 3 4 5
5 6 7 4 9 6 8 7 9 14 14 13 13 12 12 17 21 22 22 19 18 16 15 13 11 10 9 8 7 5 5 6 7 6 5 4 3 3 3 4 5 5 5 5
3 8 5 4 7 10 9 10 13 14 14 13 13 12 13 16 21 21 22 21 22 19 16 16 14 12 10 9 8 7 6 5 4 3 2 1 1 2 5 7 7 9 9 10
8 6 5 7 3 6 14 18 18 15 13 12 11 12 13 16 19 22 23 22 20 20 19 18 16 14 13 11 9 8 7 6 4 3 2 1 2 3 5 7 9 11 11 11
9 9 8 10 14 16 16 16 15 14 12 12 11 11 13 16 19 21 21 21 21 21 21 21 19 16 15 13 11 10 8 7 5 4 3 2 3 6 8 10 10 12 13 13
8 9 11 13 13 13 13 12 12 12 11 11 12 13 13 14 16 19 21 23 25 25 23 22 20 17 16 14 13 11 9 8 5 5 3 3 6 8 10 11 12 13 14 14
5 6 8 9 11 12 11 12 13 14 14 14 11 11 13 16 18 21 22 22 22 21 20 22 21 19 18 15 13 11 10 8 7 5 3 5 7 9 11 12 13 14 14 14
5 5 7 10 12 13 13 12 12 13 15 13 13 13 15 18 21 22 22 22 22 23 23 22 23 19 18 16 14 12 10 9 7 5 5 7 9 10 12 13 14 14 14 13
3 3 6 6 7 8 11 10 8 8 8 12 14 14 14 16 18 19 21 23 25 26 26 24 24 20 19 17 15 13 11 10 8 6 7 8 10 11 13 13 13 14 14 13
3 1 4 5 6 8 9 8 6 6 4 6 10 13 14 16 17 19 21 24 24 24 25 24 23 20 20 18 15 13 12 10 8 8 8 9 10 12 12 12 13 13 13 13
3 2 2 4 7 7 8 8 8 8 8 6 6 8 11 13 16 19 21 24 24 24 21 23 21 22 20 18 16 14 12 10 9 9 9 10 11 12 11 11 11 12 12 13
4 4 5 5 6 7 8 8 8 7 8 7 6 7 10 12 15 17 21 23 24 24 24 24 23 21 19 17 16 14 12 11 10 10 10 11 11 11 10 10 11 12 13 13
3 5 6 7 7 8 9 9 8 7 7 6 6 7 9 12 14 16 20 21 24 26 24 22 21 20 19 18 16 14 12 11 11 10 11 11 11 10 9 9 10 12 12 13
5 6 7 8 8 9 9 9 9 8 8 8 8 7 8 9 12 14 16 17 23 25 21 19 21 21 20 17 17 14 13 12 11 11 11 11 11 10 9 9 10 11 12 12
5 5 6 7 8 9 10 10 10 10 9 8 8 8 8 8 9 9 14 18 21 18 19 17 19 20 19 18 17 15 14 13 12 12 12 12 11 10 10 10 10 11 12 13
5 5 6 8 9 10 11 11 10 10 10 9 8 8 7 8 9 10 13 18 20 21 21 21 20 22 19 18 17 15 14 13 12 12 12 12 11 11 11 11 11 12 14 15
5 6 7 8 10 11 11 12 11 10 10 10 9 9 8 7 8 11 14 17 20 22 23 21 21 22 18 18 17 16 15 13 12 13 12 12 11 11 12 12 12 13 15 16
Wind_Direction
230 160 182 218 206 200 210 217 217 169 231 258 287 306 318 324 334 348 348 343 352 353 347 331 335 346 342 336 332 329 327 321 321 331 319 303 293 286 285 287 297 305 299 281
240 199 224 247 235 220 222 232 242 258 277 274 273 273 302 321 332 337 342 348 346 338 327 335 343 341 343 352 352 356 348 330 314 331 323 333 324 314 299 296 274 275 278 270
242 189 277 260 234 216 211 211 218 220 233 256 274 291 317 309 322 332 327 357 324 345 357 354 345 349 6 18 19 22 19 15 10 351 342 335 332 328 321 311 267 250 245 247
283 268 243 46 130 217 217 228 220 246 249 260 282 301 297 286 232 330 10 61 24 12 13 4 3 25 45 48 39 41 49 52 55 38 36 30 29 39 50 50 81 119 133 136
260 243 297 258 195 177 187 142 221 231 254 265 285 286 246 194 187 152 131 71 54 50 55 49 51 59 70 69 61 63 63 61 61 59 58 59 64 73 84 96 107 113 121 130
165 258 258 38 140 194 218 155 164 212 245 258 175 262 124 181 176 142 122 99 77 74 71 69 70 72 75 79 80 78 74 72 71 74 78 84 89 93 99 107 114 124 127 126
225 247 276 255 142 157 197 104 145 214 258 234 226 278 160 180 169 156 138 119 102 88 81 77 79 82 82 81 79 78 81 81 81 82 82 83 91 98 102 105 110 108 103 102
204 216 251 153 131 221 91 103 24 282 277 264 257 252 211 192 177 160 150 134 128 116 99 93 90 92 94 89 87 88 90 90 89 89 88 90 93 98 99 98 99 95 87 82
205 217 87 190 167 174 277 291 265 200 286 295 278 246 215 198 184 174 161 152 150 143 133 129 122 118 107 100 101 103 100 97 93 91 94 96 97 97 98 97 93 89 78 56
182 225 232 229 250 270 303 159 203 276 297 299 292 266 223 204 196 190 184 177 175 173 167 155 146 135 125 109 106 107 104 103 101 100 98 98 95 92 85 76 59 36 4 331
243 250 222 228 191 154 206 284 286 282 282 285 286 269 232 213 208 203 198 193 192 193 193 184 168 155 143 131 123 125 120 115 112 110 107 102 98 94 86 54 6 327 311 304
218 201 215 159 177 248 281 289 308 295 279 270 270 262 240 223 218 212 208 203 200 201 201 196 185 178 168 159 151 153 149 136 130 124 116 107 90 60 27 353 344 333 322 320
207 179 188 221 265 282 262 283 302 298 282 267 259 253 243 229 223 217 212 212 211 208 204 203 192 187 187 181 176 172 172 163 149 138 125 100 25 344 333 334 327 333 335 328
196 202 252 262 245 252 280 290 292 282 272 262 253 248 241 231 223 219 217 218 213 210 206 204 198 195 196 191 190 188 188 187 185 184 188 228 291 320 327 330 326 323 320 314
216 229 243 267 282 288 291 292 285 270 262 251 248 250 244 235 227 223 217 216 213 210 208 205 203 199 203 197 197 197 196 199 204 210 220 270 324 329 328 323 319 316 316 315
223 248 274 285 295 302 297 291 281 269 257 243 246 254 252 239 228 221 217 215 212 211 208 208 209 206 207 204 200 200 201 203 214 229 247 310 321 322 318 316 316 316 316 314
268 279 284 288 309 315 310 299 287 274 259 253 251 252 245 233 223 218 217 217 216 212 215 215 211 205 210 209 205 205 208 214 227 238 270 303 311 312 311 314 316 317 316 315
265 272 287 299 308 311 312 310 296 281 261 250 244 249 243 233 228 224 220 215 211 209 214 214 211 204 211 212 209 209 213 222 232 247 275 297 306 306 310 315 317 317 316 314
201 349 317 310 319 319 318 317 313 297 262 240 245 258 257 244 234 227 221 218 216 214 212 214 208 198 211 213 211 213 219 229 239 256 277 294 300 306 313 316 318 319 319 318
198 212 339 12 342 325 332 346 347 345 317 273 254 249 244 238 230 226 222 224 224 221 218 216 207 203 209 212 213 215 222 233 246 261 279 292 301 308 313 317 321 324 324 322
136 89 311 5 350 339 331 331 332 330 333 315 277 257 251 242 236 232 227 222 218 218 217 213 207 209 212 214 215 219 224 235 249 264 280 291 302 307 313 320 325 329 331 330
93 70 38 17 5 352 345 336 325 321 325 319 292 265 252 246 239 232 230 229 217 208 214 205 209 211 215 217 218 222 228 238 251 265 280 292 301 305 313 319 326 330 330 328
42 26 7 358 355 354 349 341 331 317 310 316 313 289 267 257 244 244 242 229 213 211 210 204 210 213 215 219 222 224 231 241 253 267 280 291 298 301 306 314 321 325 326 324
3 354 349 348 349 344 337 344 344 336 321 306 296 293 286 270 258 250 240 228 212 207 203 196 211 215 221 222 224 227 235 245 255 269 280 289 294 294 298 306 314 319 320 320
344 339 338 340 341 347 350 347 343 339 332 319 304 291 281 272 260 244 222 213 202 203 194 195 214 221 226 224 226 230 237 246 257 270 280 289 289 288 293 301 309 312 312 315
330 331 333 336 338 342 342 341 342 339 334 330 323 307 288 273 254 232 221 216 207 200 192 198 210 225 225 225 226 230 238 247 258 271 281 286 284 285 289 296 303 305 310 316
302 309 318 322 325 329 332 332 329 330 330 327 325 317 305 285 257 236 229 222 219 213 205 202 213 224 223 224 225 230 236 245 258 267 278 280 279 282 288 294 298 304 310 312